{"data":{"norad_id":67447,"intl_designator":"2026-008C","name":"STARLINK-36440","alt_names":[],"object_type":"PAYLOAD","status":"ACTIVE","operator":null,"country":"US","launch_date":"2026-01-14","launch_site_code":"AFETR","launch_vehicle":null,"mission":null,"orbit_class":"UNKNOWN","rcs_meters":null,"size_class":null,"mass_kg":null,"dimensions":null,"purposes":["comms"],"wikipedia_slug":null,"has_3d_model":false,"image_url":null,"decayed_at":null,"tle_current":{"epoch":"2026-09-19T03:37:16.556448Z","epoch_age_seconds":191964,"freshness":"STALE","line1":"1 67447U 26008C   26262.15088607  .00014542  00000+0  53676-3 0  9992","line2":"2 67447  42.9994 192.3026 0001416 262.9489  97.1201 15.27590558 39168","mean_motion":15.27590558,"eccentricity":0.0001416,"inclination_deg":42.9994,"raan_deg":192.3026,"arg_perigee_deg":262.9489,"mean_anomaly_deg":97.1201,"bstar":0.00053676,"rev_number":3916,"period_min":94.266097185448,"perigee_km":482.0459422969,"apogee_km":483.98902124614,"semimajor_km":6861.1544817715,"source":"CELESTRAK","updated_at":"2026-09-20T09:00:43.526615Z"}}}